Sheridan, WY

3:29 PM MST on November 21, 2017 (GMT -0700)
Sheridan County

Weather History for KSHR - November, 2014

Change the Weather History Date:

Monday, November 24, 2014

  Actual Average Record
Temperature  
Mean Temperature 32 °F 28 °F  
Max Temperature 40 °F 41 °F 72 °F (1990)
Min Temperature 23 °F 16 °F -17 °F (2010)
Degree Days  
Heating Degree Days 33 37  
Month to date heating degree days 886 744  
Since 1 July heating degree days 1615 1652  
Cooling Degree Days 0 0  
Month to date cooling degree days 0 0  
Year to date cooling degree days 346 419  
Moisture  
Dew Point 24 °F    
Average Humidity 73    
Maximum Humidity 92    
Minimum Humidity 53    
Precipitation  
Precipitation 0.03 in 0.03 in 0.43 in (1942)
Month to date precipitation 0.76 0.59  
Year to date precipitation 13.62 13.48  
Sea Level Pressure  
Sea Level Pressure 30.05 in    
Wind  
Wind Speed 15 mph (WNW)    
Max Wind Speed 39 mph    
Max Gust Speed 46 mph    
Visibility 7 miles    
Events Snow    
T = Trace of Precipitation, MM = Missing Value Source: NWS Daily Summary

Daily Weather History Graph

Daily Weather History Graph

Search for Another Location

Airport or City:

Trip Planner

Search our weather history database for the weather conditions in past years. The results will help you decide how hot, cold, wet, or windy it might be!

Date:

Astronomy

Nov. 24, 2014 Rise Set
Actual Time 7:16 AM MST 4:32 PM MST
Civil Twilight 6:44 AM MST 5:04 PM MST
Nautical Twilight 6:08 AM MST 5:40 PM MST
Astronomical Twilight 5:33 AM MST 6:15 PM MST
Moon 9:11 AM MST (11/24) 6:57 PM MST (11/24)
Length of Visible Light 10h 20m
Length of Day
9h 15m
Waxing Crescent, 6% of the Moon is Illuminated
Nov 24
Waxing Crescent
Nov 29
First Quarter
Dec 6
Full
Dec 14
Last Quarter
Dec 21
New

Hourly Weather History & Observations

Time (MST) Temp. Windchill Dew Point Humidity Pressure Visibility Wind Dir Wind Speed Gust Speed Precip Events Conditions
12:53 AM 30.9 °F 27.5 °F 21.0 °F 67% 29.87 in 10.0 mi SSW 3.5 mph - N/A   Mostly Cloudy
1:53 AM 27.0 °F 20.5 °F 21.0 °F 78% 29.88 in 10.0 mi SSW 5.8 mph - N/A   Overcast
2:53 AM 30.0 °F - 21.0 °F 69% 29.89 in 10.0 mi Calm Calm - N/A   Overcast
3:53 AM 33.1 °F 26.9 °F 21.9 °F 64% 29.89 in 10.0 mi Variable 6.9 mph - N/A   Overcast
4:41 AM 32.0 °F 22.1 °F 27.0 °F 82% 29.86 in 3.0 mi NW 13.8 mph - 0.00 in Snow Light Snow
4:50 AM 32.0 °F 22.1 °F 28.4 °F 87% 29.87 in 3.0 mi NW 13.8 mph - 0.00 in Snow Light Snow
4:53 AM 30.9 °F 20.2 °F 28.0 °F 89% 29.95 in 3.0 mi NW 15.0 mph 21.9 mph 0.00 in Snow Light Snow
5:13 AM 32.0 °F 21.2 °F 28.0 °F 85% 29.88 in 1.8 mi NW 16.1 mph - 0.00 in Snow Light Snow
5:40 AM 32.0 °F 22.1 °F 28.9 °F 88% 29.89 in 1.2 mi NW 13.8 mph - 0.01 in Snow Light Snow
5:53 AM 30.9 °F 19.8 °F 28.9 °F 92% 29.99 in 1.2 mi NW 16.1 mph - 0.02 in Snow Light Snow
6:03 AM 30.9 °F 19.1 °F 28.9 °F 92% 29.90 in 2.0 mi NW 18.4 mph - 0.01 in Snow Light Snow
6:14 AM 32.0 °F 19.8 °F 28.0 °F 85% 29.90 in 5.0 mi WNW 20.7 mph 29.9 mph 0.01 in Snow Light Snow
6:48 AM 32.0 °F 18.9 °F 26.6 °F 80% 29.91 in 10.0 mi WNW 24.2 mph - 0.01 in   Overcast
6:53 AM 32.0 °F 18.9 °F 27.0 °F 82% 29.99 in 10.0 mi WNW 24.2 mph - 0.01 in   Overcast
7:37 AM 32.0 °F 17.9 °F 28.0 °F 85% 29.94 in 1.8 mi NW 28.8 mph 35.7 mph 0.00 in Snow Light Snow
7:44 AM 32.0 °F 18.9 °F 28.0 °F 85% 29.95 in 1.0 mi NW 24.2 mph 35.7 mph 0.00 in Snow Light Snow
7:53 AM 32.0 °F 17.9 °F 28.0 °F 85% 30.04 in 1.0 mi NW 28.8 mph 35.7 mph 0.00 in Snow Light Snow
8:05 AM 32.0 °F 20.1 °F 28.0 °F 85% 29.96 in 3.0 mi NW 19.6 mph 32.2 mph 0.00 in Snow Light Snow
8:19 AM 32.0 °F 19.2 °F 27.0 °F 82% 29.97 in 9.0 mi NW 23.0 mph - 0.00 in   Overcast
8:53 AM 33.1 °F 21.2 °F 26.1 °F 75% 30.06 in 10.0 mi WNW 20.7 mph - 0.00 in   Overcast
9:53 AM 36.0 °F 23.0 °F 21.9 °F 57% 30.08 in 10.0 mi NW 29.9 mph 40.3 mph N/A   Overcast
10:53 AM 36.0 °F 23.7 °F 21.9 °F 57% 30.10 in 10.0 mi NW 26.5 mph 39.1 mph N/A   Mostly Cloudy
11:53 AM 37.0 °F 24.3 °F 23.0 °F 57% 30.12 in 10.0 mi WNW 31.1 mph 40.3 mph N/A   Overcast
12:53 PM 35.6 °F 24.2 °F 23.0 °F 60% 30.07 in 7.0 mi NW 21.9 mph 35.7 mph N/A Snow Light Snow
1:53 PM 37.9 °F 26.6 °F 24.1 °F 57% 30.18 in 10.0 mi WNW 25.3 mph 35.7 mph 0.00 in   Overcast
2:40 PM 34.0 °F 20.3 °F 26.1 °F 73% 30.11 in 1.8 mi WNW 29.9 mph 43.7 mph 0.00 in Snow Light Snow
2:48 PM 33.8 °F 22.2 °F 28.4 °F 81% 30.12 in 1.8 mi NW 20.7 mph 38.0 mph 0.00 in Snow Light Snow
2:51 PM 33.8 °F 23.2 °F 26.6 °F 75% 30.11 in 4.0 mi NW 17.3 mph - 0.00 in Snow Light Snow
2:53 PM 34.0 °F 23.0 °F 27.0 °F 75% 30.21 in 8.0 mi NW 18.4 mph - 0.00 in   Mostly Cloudy
3:06 PM 35.1 °F 22.5 °F 26.1 °F 70% 30.12 in 10.0 mi WNW 26.5 mph 32.2 mph N/A   Overcast
3:47 PM 33.8 °F 21.3 °F 26.6 °F 75% 30.13 in 2.0 mi NNW 24.2 mph 33.4 mph 0.00 in Snow Light Snow
3:53 PM 33.1 °F 19.3 °F 26.1 °F 75% 30.22 in 1.8 mi WNW 28.8 mph 34.5 mph 0.00 in Snow Light Snow
3:56 PM 33.1 °F 18.9 °F 25.0 °F 72% 30.13 in 3.0 mi WNW 31.1 mph 39.1 mph 0.00 in Snow Light Snow
4:07 PM 32.0 °F 17.9 °F 25.0 °F 75% 30.13 in 8.0 mi West 28.8 mph 38.0 mph 0.00 in Snow Light Snow
4:53 PM 28.9 °F 20.4 °F 23.0 °F 78% 30.23 in 10.0 mi WSW 9.2 mph - 0.00 in   Clear
5:53 PM 28.0 °F 17.5 °F 19.9 °F 72% 30.22 in 10.0 mi West 12.7 mph - N/A   Clear
6:53 PM 28.9 °F 19.2 °F 16.0 °F 58% 30.21 in 10.0 mi West 11.5 mph - N/A   Clear
7:53 PM 28.0 °F 18.1 °F 14.0 °F 56% 30.22 in 10.0 mi West 11.5 mph - N/A   Clear
8:53 PM 25.0 °F 17.1 °F 12.9 °F 60% 30.18 in 10.0 mi WSW 6.9 mph - N/A   Clear
9:53 PM 25.0 °F 19.3 °F 14.0 °F 63% 30.14 in 10.0 mi WSW 4.6 mph - N/A   Clear
10:53 PM 25.0 °F 19.3 °F 14.0 °F 63% 30.11 in 10.0 mi SSW 4.6 mph - N/A   Mostly Cloudy
11:53 PM 26.1 °F 19.4 °F 14.0 °F 60% 30.06 in 10.0 mi SSW 5.8 mph - N/A   Mostly Cloudy